User: anonymous   Login
Location: W�rzburg
(49.7529°N, 9.8822°E)
Time: 01:37:34
(UTC+01:00)
Language:

ISS - Orbit

View from above orbital plane
View from above orbital plane
View from above satellite
View from above satellite

Ground track
Ground track

The orbit data is extracted from the following two-line orbital elements,

1 25544U 98067A   19082.99002857  .00016717  00000-0  10270-3 0  9030
2 25544  51.6377  64.7608 0001997 111.3030 248.8335 15.52417485  2015
Epoch (UTC): 23 March 2019 23:45:38
Eccentricity: 0.0001997
inclination: 51.6377°
perigee height: 408 km
apogee height: 411 km
right ascension of ascending node: 64.7608°
argument of perigee: 111.3030°
revolutions per day: 15.52417485
mean anomaly at epoch: 248.8335°
orbit number at epoch: 201

The dashed part of the orbit path shows where the satellite is in the earth's shadow,  

DLR